EHI
0 0 0 0 0 0 0 0 0 0 0 0 0 0 0 0 0 0 0 1 5 12 15 13 11 9 8 7 7 8 10 10 7 4 4 4 6 6 4 1 0 0 0 0 0 0 0 0 0
0 0 0 0 0 0 0 0 0 0 0 0 0 0 0 0 0 0 0 1 5 10 13 12 13 11 8 7 6 6 8 8 6 5 5 5 7 6 4 2 1 1 0 0 0 0 0 0 0
0 0 0 0 0 0 0 0 0 0 0 0 0 0 0 0 0 0 0 1 4 8 10 13 16 15 11 7 6 5 5 5 5 6 6 5 6 7 5 4 3 2 1 0 0 0 0 0 0
0 0 0 0 0 0 0 0 0 0 0 0 0 0 0 0 0 0 0 1 3 5 8 13 17 17 13 9 5 4 3 3 4 6 6 4 4 5 5 5 4 4 2 1 0 0 0 0 1
0 0 0 0 0 0 0 0 0 0 0 0 0 0 0 0 0 0 0 2 3 5 7 12 17 17 15 11 6 2 2 3 4 6 6 4 3 3 4 4 4 4 3 2 1 0 0 0 1
0 0 0 0 0 0 0 0 0 0 0 0 0 0 0 0 0 0 1 3 5 6 8 11 14 16 16 12 7 2 1 2 4 6 5 4 3 2 2 3 3 3 3 2 1 0 0 0 1
0 0 0 0 0 0 0 0 1 0 0 0 0 0 0 0 0 1 3 6 7 8 9 9 9 12 13 11 7 3 1 1 2 4 4 3 2 1 1 2 2 2 2 2 1 1 0 0 0
0 0 0 0 0 0 0 0 0 0 0 0 1 1 1 1 0 1 4 8 9 8 7 6 6 7 9 8 5 3 2 1 1 1 1 1 1 0 0 1 1 1 1 2 2 2 1 0 0
0 0 0 0 0 0 0 0 0 0 0 0 0 1 1 1 0 1 5 9 9 7 5 5 6 7 7 6 3 2 1 0 0 0 0 0 0 0 0 0 0 0 1 2 3 3 2 1 0
0 0 0 0 0 0 0 0 0 0 0 0 0 0 1 1 1 2 5 8 9 7 5 6 8 10 9 6 4 2 1 1 0 0 0 0 0 0 0 0 0 0 0 1 2 2 2 1 0
0 0 0 0 0 0 0 0 0 0 0 0 0 0 1 2 2 3 5 8 9 7 6 7 10 12 11 8 6 3 2 2 1 1 0 0 0 0 0 0 0 0 0 0 1 1 1 0 0
0 0 0 0 0 0 0 0 0 0 0 0 0 0 1 1 2 3 4 7 9 8 6 7 9 11 12 10 8 5 3 3 2 2 1 1 1 0 0 0 0 0 0 0 0 1 0 0 0
0 0 0 0 0 0 0 0 0 0 0 0 0 0 0 0 1 1 2 4 6 6 5 6 8 10 11 12 8 5 4 3 3 2 1 1 1 0 0 0 0 0 0 0 0 0 0 0 0
0 0 0 0 0 0 0 0 0 0 0 0 0 0 0 0 0 0 1 1 2 2 2 4 6 9 11 11 8 4 4 3 3 1 0 0 0 0 0 0 0 0 0 0 0 0 0 0 0
0 0 0 0 0 0 0 0 0 0 0 0 0 0 0 0 0 0 0 1 1 1 1 3 5 7 9 9 6 4 4 4 2 1 0 0 0 0 0 0 0 0 0 0 0 0 1 0 0
0 0 0 0 0 0 0 0 0 0 0 0 0 0 0 0 0 0 0 0 1 1 1 2 4 5 6 6 6 5 4 4 3 1 0 0 0 0 0 0 0 0 0 0 0 0 0 0 0
0 0 0 0 0 0 0 0 0 0 0 0 0 0 0 0 0 0 0 0 0 1 1 2 3 3 2 4 6 6 5 5 5 3 1 0 0 0 0 0 0 0 0 0 0 0 0 0 0
0 0 0 0 0 0 0 0 0 0 0 0 0 0 1 0 0 0 0 0 0 1 1 1 1 1 1 2 5 6 4 4 4 3 1 0 0 0 1 1 1 1 0 0 0 0 0 0 0
0 0 0 0 0 0 0 0 0 0 0 0 0 0 0 0 0 0 0 0 0 1 1 1 0 0 0 1 3 3 2 1 1 1 0 0 0 0 1 2 2 2 1 0 0 0 0 0 0
0 0 0 0 0 0 0 0 0 0 0 0 0 0 0 0 0 0 0 0 0 0 0 0 0 0 0 1 3 2 1 1 0 0 0 0 0 0 0 1 3 3 2 0 0 0 0 0 0
0 0 0 0 0 0 0 0 0 0 0 0 0 0 0 0 0 0 0 0 0 0 0 0 0 0 0 0 1 2 2 2 1 0 0 0 0 0 0 1 2 2 1 0 0 0 0 0 0
0 0 0 0 0 0 0 0 0 0 0 0 0 0 0 0 0 0 0 0 0 0 0 0 0 0 0 0 0 1 1 1 1 0 0 0 0 0 0 0 1 1 0 0 0 0 0 0 0
0 0 0 0 0 0 0 0 0 0 0 0 0 0 0 0 0 0 0 0 0 0 1 1 1 0 0 0 0 0 0 0 0 1 1 0 0 0 0 0 0 0 0 0 0 0 0 0 0
0 0 0 0 0 0 0 0 0 0 0 0 0 0 0 0 0 0 0 0 0 0 1 1 1 0 0 0 0 0 0 0 0 1 1 0 0 0 0 0 0 0 0 0 0 0 0 0 0
0 0 0 0 0 0 0 0 0 0 0 0 0 0 0 0 0 0 0 0 0 0 0 0 0 0 0 0 0 0 0 0 0 0 0 0 0 0 0 0 0 0 0 0 0 0 0 0 0
0 0 0 0 0 0 0 0 0 0 0 0 0 0 0 0 0 0 0 0 0 0 0 0 0 0 0 0 0 0 0 0 1 0 0 0 0 0 0 0 0 0 0 0 0 0 0 0 0
0 0 0 0 0 0 0 0 0 0 0 0 0 0 0 0 0 0 0 0 0 0 0 0 0 0 0 0 0 0 0 0 0 0 0 0 0 0 0 0 0 0 0 0 0 0 0 0 0
0 0 0 0 0 0 0 0 0 0 0 0 0 0 0 0 0 0 0 0 0 0 0 0 0 0 0 0 0 0 0 0 0 0 0 0 0 0 0 0 0 0 0 0 0 0 0 0 0
0 0 0 0 0 0 0 0 0 0 0 0 0 0 0 0 0 0 0 0 0 0 0 0 0 0 0 0 0 0 0 0 0 0 0 0 0 0 0 0 0 0 0 0 0 0 0 0 0
0 0 0 0 0 0 0 0 0 0 0 0 0 0 0 0 0 0 0 0 0 0 0 0 0 0 0 0 0 0 0 0 0 0 0 0 0 0 0 0 0 0 0 0 0 0 0 0 0
Wind_Speed
7 5 3 3 5 7 10 7 5 5 5 2 2 3 4 3 2 3 4 3 4 7 9 10 9 9 9 9 9 10 11 11 11 11 10 10 10 10 10 10 9 9 9 9 9 10 10 10 10
5 3 3 4 7 10 10 8 9 6 2 2 3 4 4 2 2 3 2 3 5 7 8 9 9 9 9 9 9 9 10 10 10 11 10 10 10 10 10 9 9 9 9 9 9 9 9 10 10
3 3 4 5 9 12 9 6 6 5 3 3 3 3 3 0 2 2 2 5 6 7 7 8 8 9 9 9 10 9 9 10 10 10 10 9 9 9 9 9 8 8 9 9 9 9 9 9 9
2 3 4 8 13 10 8 5 3 5 5 4 4 3 2 3 2 2 3 6 7 7 7 9 8 8 9 9 9 9 9 9 9 10 9 9 9 9 9 9 8 8 8 8 8 9 9 9 9
2 4 7 10 14 9 6 5 5 6 5 4 5 4 2 3 2 2 4 6 6 6 6 8 8 9 9 8 8 8 9 9 9 9 9 9 8 8 8 8 8 8 8 8 8 9 9 8 8
4 4 9 13 13 9 7 6 7 8 6 4 4 5 2 3 1 1 4 5 5 5 6 7 8 8 9 8 8 8 8 9 9 8 8 8 8 8 8 8 8 8 8 8 8 8 8 7 7
5 5 10 12 11 10 7 5 7 8 8 5 4 4 3 3 1 1 3 4 4 4 5 6 7 7 8 8 8 7 7 8 8 8 7 7 7 8 8 8 8 8 8 7 8 8 8 7 7
3 4 8 10 12 10 5 5 5 7 6 2 4 6 2 1 1 2 3 4 4 4 4 5 6 7 7 8 7 7 6 7 7 7 7 6 7 7 7 7 7 7 7 7 7 7 7 7 6
3 6 10 10 9 6 4 6 4 4 5 3 3 2 3 2 2 3 3 3 3 3 4 4 5 6 7 7 7 7 7 6 7 7 7 7 6 7 6 6 6 7 7 7 7 7 6 6 6
5 8 10 4 4 4 5 6 4 6 8 7 5 3 0 2 3 4 4 5 5 5 5 4 5 5 6 5 6 6 6 7 6 6 7 6 5 4 5 7 6 6 6 6 6 6 6 4 4
5 7 4 3 3 3 5 6 6 8 10 8 7 5 2 3 5 6 6 6 6 6 6 5 5 5 6 5 5 4 4 5 6 7 7 5 4 4 4 4 5 5 5 4 5 5 3 3 2
4 4 4 3 3 4 6 6 7 10 9 5 6 5 5 6 6 7 7 7 6 6 6 6 5 5 6 6 5 5 4 4 4 6 7 5 4 4 4 3 4 4 3 3 3 3 3 3 3
6 5 4 4 5 6 8 10 10 11 10 8 7 6 7 7 8 8 7 6 6 6 7 7 6 6 6 6 5 5 5 5 5 5 6 6 4 5 4 3 3 3 3 3 3 3 4 3 3
3 4 6 6 7 6 9 11 11 12 8 7 7 7 8 8 8 8 7 7 7 7 6 7 8 7 6 6 6 5 5 5 5 5 6 7 5 5 5 4 4 3 3 3 3 4 3 3 3
3 5 6 6 6 4 7 13 13 11 8 9 9 8 9 9 8 9 8 8 8 7 6 7 8 8 8 8 8 6 6 6 6 5 7 7 6 6 5 5 4 4 4 4 4 4 3 3 3
3 6 6 4 4 4 7 13 8 5 6 9 9 9 9 9 10 9 8 8 7 7 7 6 6 8 9 8 8 6 6 7 6 6 6 8 8 7 6 5 5 5 4 4 4 4 4 3 3
4 5 7 5 3 5 9 13 8 6 8 10 10 10 10 9 9 9 8 8 7 7 7 7 7 8 8 8 7 7 6 7 6 6 6 7 8 8 6 5 5 5 5 4 4 4 4 3 3
5 6 6 7 3 7 12 15 13 10 11 12 11 11 10 10 9 8 8 7 7 7 7 6 7 8 8 7 6 6 6 6 6 6 7 8 8 9 7 6 6 6 5 5 5 5 4 3 3
5 7 9 8 6 8 13 16 15 12 12 13 12 11 10 10 10 8 7 7 7 7 7 7 6 7 7 6 7 7 7 6 6 6 8 9 8 9 8 6 6 6 6 6 6 5 5 4 3
7 8 9 7 5 8 11 17 15 12 12 11 11 11 11 10 9 8 7 7 7 8 7 7 7 7 8 7 7 6 6 6 6 5 7 8 9 9 8 8 6 7 5 6 6 6 4 3 3
8 9 8 8 8 7 10 12 9 7 8 8 9 9 9 9 9 8 8 8 8 8 7 7 7 7 8 7 6 5 5 4 5 6 6 8 9 9 8 9 7 7 6 6 7 7 7 5 4
7 5 7 8 7 5 4 8 7 6 7 7 7 7 7 7 7 8 8 8 8 7 6 7 7 7 7 7 8 9 8 7 7 6 6 7 8 9 9 9 8 7 6 7 7 7 6 6 5
4 3 6 7 7 7 6 8 8 4 7 6 6 6 6 6 7 7 8 8 7 6 5 5 6 7 7 7 8 9 8 7 5 6 7 7 7 8 8 8 8 7 6 7 7 7 7 6 6
3 3 3 4 4 7 7 8 8 4 5 5 5 5 6 6 6 7 7 6 6 5 4 5 6 7 7 8 8 9 9 8 8 8 7 6 5 6 8 7 7 7 6 7 7 7 8 7 7
3 2 2 3 5 6 3 7 9 3 3 5 5 6 6 6 6 6 6 5 5 4 4 4 6 7 7 7 8 8 9 10 10 9 8 7 6 5 7 6 6 6 6 7 7 7 7 7 7
5 4 4 5 5 4 4 8 5 2 3 5 5 5 5 6 5 5 5 5 5 4 4 4 5 6 6 7 7 7 8 7 6 8 7 7 6 6 7 7 7 6 6 6 6 6 6 6 6
5 5 3 3 4 7 7 6 6 3 4 4 4 4 5 5 6 5 5 5 4 4 4 4 5 6 6 6 6 6 7 7 7 7 7 6 6 5 7 7 7 6 6 6 6 5 6 6 6
3 3 3 5 5 7 7 7 4 3 4 4 4 5 6 6 6 6 5 6 5 4 3 3 5 5 4 4 5 5 6 6 6 6 7 7 7 7 7 7 7 6 6 7 6 5 6 6 5
5 4 5 4 4 5 6 4 2 3 4 4 4 5 6 7 7 6 5 5 5 4 3 3 3 3 3 3 4 4 5 6 6 6 7 7 7 8 8 7 7 7 7 6 6 6 6 6 6
4 5 5 4 4 5 6 6 2 3 3 4 4 5 6 7 7 6 6 5 5 5 5 4 3 3 2 2 3 3 4 5 5 5 6 6 6 7 7 7 7 7 7 6 7 7 6 7 7
Wind_Direction
320 308 259 230 223 228 232 215 212 190 192 189 203 222 234 240 270 40 60 127 134 151 153 158 159 155 153 151 147 146 145 145 143 139 137 137 134 132 130 125 120 117 113 109 105 103 101 99 95
315 290 228 224 232 228 222 211 209 207 175 159 196 220 222 214 28 57 95 136 152 152 155 157 155 153 152 150 147 145 145 146 144 142 138 138 137 135 132 125 122 119 116 112 108 104 101 100 98
291 262 229 217 228 235 224 193 208 210 199 203 196 222 252 341 76 76 88 153 156 153 158 148 152 152 149 149 148 147 150 147 143 142 142 140 140 138 134 128 124 121 119 115 110 106 104 102 99
240 203 221 233 232 234 238 199 193 194 191 212 220 198 167 44 25 42 120 161 158 156 160 149 154 151 150 148 149 149 148 148 146 143 142 142 143 143 138 132 129 125 122 118 114 111 109 106 103
233 216 217 229 235 230 228 234 220 215 198 190 214 219 180 112 44 77 145 165 162 158 161 156 160 157 151 151 151 156 151 146 146 147 146 145 143 145 141 136 133 128 126 124 121 119 115 113 109
193 214 227 232 230 226 220 222 228 230 220 206 221 231 189 120 61 105 160 171 166 160 163 160 163 164 158 155 157 158 157 154 151 150 150 148 145 145 145 141 138 134 133 128 125 124 120 118 114
216 216 237 240 236 228 219 217 227 234 230 223 232 233 176 140 46 124 175 173 169 164 169 169 172 173 167 160 159 162 159 159 157 154 149 147 147 149 151 147 143 139 136 131 127 125 125 123 118
250 223 235 234 234 234 212 210 231 248 245 249 238 238 211 92 69 157 168 172 171 173 176 179 182 180 176 171 163 160 159 158 157 152 144 141 148 150 147 151 147 143 139 136 131 127 125 123 117
224 225 232 231 231 228 202 216 216 250 246 221 229 283 11 87 147 163 171 187 188 191 195 194 193 188 182 179 167 166 164 158 155 152 141 149 159 157 152 139 136 139 139 138 134 131 126 126 124
214 228 236 244 254 243 223 235 238 227 231 226 219 220 206 162 177 190 197 204 204 205 208 202 201 196 189 180 172 178 176 171 178 172 165 170 164 154 147 129 130 133 132 136 133 134 143 163 152
217 237 237 238 267 278 260 249 245 240 239 241 245 246 229 213 212 215 215 217 216 208 207 208 207 201 196 183 179 179 180 179 184 177 174 172 163 152 154 153 148 153 157 162 151 166 176 178 161
226 237 247 248 272 271 269 267 251 243 249 270 271 263 239 230 230 230 226 225 221 218 215 213 210 206 204 192 187 185 184 182 183 179 177 178 173 172 165 169 167 170 173 175 179 181 177 178 174
230 243 255 267 272 268 266 260 262 252 253 264 265 250 238 238 240 241 240 232 227 224 221 217 212 210 206 197 192 191 189 188 186 187 187 185 182 179 172 174 175 180 179 183 184 186 182 185 183
243 256 264 265 263 259 263 264 255 250 249 255 254 248 244 244 246 246 243 238 229 226 227 221 213 212 211 205 197 194 192 190 190 192 194 192 188 184 180 179 182 185 188 190 193 193 190 194 194
250 259 258 246 254 254 269 258 240 247 249 254 255 254 252 250 250 248 247 245 239 233 230 227 219 210 213 210 203 199 194 191 194 196 198 196 192 187 185 184 187 188 188 192 198 195 201 198 197
239 242 248 227 248 243 245 257 242 234 251 257 260 260 257 254 251 250 250 246 245 241 230 227 227 214 215 210 203 200 198 197 197 194 198 197 194 191 190 189 192 188 189 195 198 199 202 204 209
219 243 252 253 239 249 239 259 259 252 257 261 262 263 260 257 254 252 251 248 242 238 235 228 228 222 217 210 202 201 200 201 200 195 198 197 194 193 194 195 192 188 193 198 201 204 205 208 216
230 244 254 255 264 258 252 260 266 260 259 262 264 262 258 257 257 257 254 250 244 239 236 232 229 228 217 205 197 196 201 204 203 201 202 199 195 194 195 196 195 191 197 200 203 205 208 210 212
248 250 259 268 285 273 261 267 270 262 254 256 259 260 260 259 260 256 254 250 244 240 234 231 231 229 212 202 194 195 200 201 203 204 203 205 200 197 197 197 195 196 203 206 206 203 203 206 199
241 251 262 273 278 277 275 274 270 258 250 253 259 262 261 263 262 259 255 250 244 241 235 231 231 232 218 210 203 200 200 204 205 203 206 208 206 201 200 199 198 200 202 204 206 204 205 202 202
242 246 260 276 298 268 280 272 248 244 243 249 255 257 258 260 264 265 259 253 247 242 239 233 230 233 224 212 203 195 193 195 200 202 207 211 211 204 204 203 201 202 203 205 207 208 209 206 205
250 242 258 269 278 275 282 283 268 255 253 254 258 256 258 261 264 265 261 257 251 247 245 241 233 230 222 211 202 198 201 204 206 201 204 208 212 208 207 206 204 203 206 208 209 211 212 208 208
247 270 260 260 261 271 236 256 270 256 256 260 263 269 276 278 277 275 268 261 259 254 245 239 234 228 219 212 205 205 209 209 204 200 202 206 208 208 208 207 204 204 208 209 209 209 211 212 213
231 261 258 233 240 252 226 235 266 238 254 273 276 280 288 293 288 280 277 271 263 260 251 241 233 229 217 210 206 209 210 207 203 203 201 202 202 206 208 207 207 207 208 210 210 210 212 213 216
213 240 253 233 226 244 192 240 258 267 275 288 293 302 310 313 305 300 296 287 276 266 256 243 234 234 221 212 211 212 212 209 207 206 204 201 199 203 206 205 208 208 212 212 210 209 213 213 213
215 230 251 265 265 279 226 243 264 312 297 303 303 303 314 314 313 310 305 297 288 275 264 256 244 237 224 218 216 215 214 211 209 211 210 209 204 204 205 205 207 209 210 212 211 210 211 210 214
200 215 260 274 278 272 247 256 274 267 281 307 323 330 333 331 333 329 322 315 303 289 272 260 258 248 224 219 217 216 213 210 208 210 213 213 208 201 202 206 206 207 208 209 210 210 209 209 211
245 201 204 226 256 267 267 259 267 277 289 312 323 333 336 336 336 335 335 331 323 310 296 281 265 249 231 221 217 218 216 213 211 210 211 214 209 203 200 204 205 205 205 205 206 207 206 208 211
190 199 221 232 253 268 280 277 1 306 307 300 312 333 338 339 339 338 340 341 343 334 322 297 280 271 244 232 225 219 215 211 212 212 212 208 207 205 203 203 204 204 204 200 200 205 204 207 212
236 226 213 238 241 244 274 282 31 322 323 327 329 336 338 336 335 336 341 347 348 346 341 335 327 312 275 248 240 232 224 213 213 214 211 207 205 205 204 203 203 204 202 200 201 204 207 207 212